Location: *
(47.6569°N, 7.4256°E)
Time: 02:04:36
(UTC+00:00)

CSL-04 Rocket - Pass Details

Date: 14 December 2019
Orbit: 807 x 859 km, 99.0° (Epoch: 20 January)

Event Time Altitude Azimuth Distance (km) Brightness Sun altitude
Rises 16:56:49 0° 134° (SE) 3,314 6.5 -12.5°
Reaches altitude 10° 16:59:20 10° 124° (SE) 2,389 5.7 -12.9°
Maximum altitude 17:03:57 32° 63° (ENE) 1,371 4.3 -13.6°
Drops below altitude 10° 17:08:37 10° 2° (N) 2,419 5.9 -14.3°
Sets 17:11:11 0° 353° (N) 3,363 6.7 -14.7°
